Regional Weather Roundup
Issued by NWS Charleston, WV

Home | Current Version | Previous Version | Graphics & Text | Print | Product List | Glossary On
Versions: 1 2 3 4 5 6 7 8 9 10 11 12 13 14 15 16 17 18 19 20 21 22 23 24 25 26 27 28 29 30 31 32 33 34 35 36 37 38 39 40 41 42 43 44 45 46 47 48 49 50
000
ASUS41 KRLX 011810
RWRRLX
West Virginia Regional Weather Roundup
National Weather Service Charleston WV
100 PM EST SUN FEB 01 2015

Note: "fair" indicates few or no clouds below 12,000 feet with no
significant weather and/or obstructions to visibility.

WVZ003-011900-
Northern Panhandle of West Virginia

CITY           SKY/WX    TMP DP  RH WIND       PRES   REMARKS
WHEELING       MIX PCPN  32  30  92 E8        29.97F
$$

WVZ009-011900-
Northwest West Virginia

CITY           SKY/WX    TMP DP  RH WIND       PRES   REMARKS
PARKERSBURG    CLOUDY    36  33  89 CALM      30.01F
$$

WVZ006-011900-
Western West Virginia

CITY           SKY/WX    TMP DP  RH WIND       PRES   REMARKS
HUNTINGTON     CLOUDY    45  18  34 CALM      29.94F
$$

WVZ015-011900-
West Central West Virginia

CITY           SKY/WX    TMP DP  RH WIND       PRES   REMARKS
CHARLESTON     CLOUDY    43  21  41 CALM      29.95F
$$

WVZ022-031-011900-
North Central West Virginia

CITY           SKY/WX    TMP DP  RH WIND       PRES   REMARKS
CLARKSBURG     CLOUDY    36  35  96 E6        29.98F
MORGANTOWN     LGT RAIN  36  31  82 CALM      30.02F
$$

WVZ025-035-042-045-011900-
Southern West Virginia

CITY           SKY/WX    TMP DP  RH WIND       PRES   REMARKS
BECKLEY        CLOUDY    41  11  29 SE7G18    29.99F
LOGAN          MOCLDY    46  19  34 S6        29.95F
BLUEFIELD      CLOUDY    47  10  22 SE6       30.00F
LEWISBURG      CLOUDY    41  16  36 N7        30.03F
$$

WVZ047-011900-
Northern Mountains of West Virginia

CITY           SKY/WX    TMP DP  RH WIND       PRES   REMARKS
ELKINS         CLOUDY    35  32  88 W3        30.01F
$$

WVZ052-011900-
Eastern Panhandle of West Virginia

CITY           SKY/WX    TMP DP  RH WIND       PRES   REMARKS
MARTINSBURG    CLOUDY    39  17  41 S8        30.13F
PETERSBURG     RAIN      39  24  55 CALM      30.07F
$$


USA.gov is the U.S. government's official web portal to all federal, state and local government web resources and services.